Location: Recife
(8.0585°S, 34.8848°W)
Time: 15:17:44
(UTC-03:00)

Transit 2A - Pass Details

Date: 20 April 2026
Orbit: 594 x 950 km, 66.7° (Epoch: 12 May)

Event Time Altitude Azimuth Distance (km) Brightness Sun altitude
Rises 20:19:12 0° 230° (SW) 3,486 9.8 -45.8°
Reaches altitude 10° 20:22:32 10° 249° (WSW) 2,594 9.2 -46.6°
Enters shadow 20:23:30 13° 257° (WSW) 2,403 9.0 -46.8°
